| time (UTC) | temp C | wind direction | speed KPH | gust KPH | rain 1hr cm | rain 24hr cm | rain mn cm | humidity % | barometer mb |
| 20260507140532 | 24 | 190 | 0.0 | 0.0 | 0.00 | 0.00 | 0.00 | 60 | 1012.8 |
| 20260507140125 | 24 | 0 | 0.0 | 0.0 | 0.00 | 0.00 | 0.00 | 60 | 1012.1 |
| 20260507140032 | 24 | 190 | 0.0 | 0.0 | 0.00 | 0.00 | 0.00 | 60 | 1012.8 |
| 20260507135532 | 23 | 190 | 0.0 | 0.0 | 0.00 | 0.00 | 0.00 | 62 | 1012.8 |
| 20260507135032 | 23 | 190 | 0.0 | 0.0 | 0.00 | 0.00 | 0.00 | 62 | 1012.8 |
| 20260507134600 | 23 | 0 | 0.0 | 1.6 | 0.00 | 0.00 | 0.00 | 62 | 1012.0 |
| 20260507134539 | 23 | 190 | 0.0 | 0.0 | 0.00 | 0.00 | 0.00 | 63 | 1012.8 |
| 20260507134032 | 23 | 190 | 0.0 | 1.6 | 0.00 | 0.00 | 0.00 | 63 | 1012.7 |
| 20260507133529 | 22 | 190 | 0.0 | 1.6 | 0.00 | 0.00 | 0.00 | 64 | 1012.7 |
| 20260507133100 | 22 | 0 | 0.0 | 1.6 | 0.00 | 0.00 | 0.00 | 64 | 1011.8 |
| 20260507133030 | 22 | 190 | 0.0 | 1.6 | 0.00 | 0.00 | 0.00 | 65 | 1012.7 |
| 20260507132529 | 22 | 190 | 0.0 | 1.6 | 0.00 | 0.00 | 0.00 | 65 | 1012.6 |
| 20260507132029 | 22 | 190 | 0.0 | 0.0 | 0.00 | 0.00 | 0.00 | 66 | 1012.6 |
| 20260507131616 | 22 | 0 | 0.0 | 0.0 | 0.00 | 0.00 | 0.00 | 66 | 1011.7 |
| 20260507131535 | 22 | 190 | 0.0 | 0.0 | 0.00 | 0.00 | 0.00 | 66 | 1012.5 |
| 20260507131028 | 21 | 190 | 0.0 | 0.0 | 0.00 | 0.00 | 0.00 | 67 | 1012.4 |
| 20260507130526 | 21 | 190 | 0.0 | 3.2 | 0.00 | 0.00 | 0.00 | 67 | 1012.3 |
| 20260507130112 | 21 | 0 | 1.6 | 4.8 | 0.00 | 0.00 | 0.00 | 67 | 1011.5 |
| 20260507130029 | 21 | 190 | 1.6 | 3.2 | 0.00 | 0.00 | 0.00 | 67 | 1012.2 |
| 20260507125525 | 21 | 190 | 0.0 | 4.8 | 0.00 | 0.00 | 0.00 | 67 | 1012.1 |
| 20260507125023 | 21 | 190 | 0.0 | 4.8 | 0.00 | 0.00 | 0.00 | 68 | 1012.0 |
| 20260507124609 | 21 | 0 | 0.0 | 0.0 | 0.00 | 0.00 | 0.00 | 67 | 1011.3 |
| 20260507124523 | 21 | 190 | 0.0 | 0.0 | 0.00 | 0.00 | 0.00 | 68 | 1012.0 |
| 20260507124022 | 21 | 190 | 0.0 | 0.0 | 0.00 | 0.00 | 0.00 | 67 | 1011.9 |
| 20260507123524 | 21 | 190 | 0.0 | 0.0 | 0.00 | 0.00 | 0.00 | 67 | 1011.9 |
| 20260507123101 | 21 | 0 | 0.0 | 0.0 | 0.00 | 0.00 | 0.00 | 67 | 1011.2 |
| 20260507123022 | 21 | 190 | 0.0 | 0.0 | 0.00 | 0.00 | 0.00 | 67 | 1011.8 |
| 20260507122521 | 21 | 190 | 0.0 | 0.0 | 0.00 | 0.00 | 0.00 | 68 | 1011.8 |
| 20260507122022 | 21 | 190 | 0.0 | 3.2 | 0.00 | 0.00 | 0.00 | 68 | 1011.8 |
| 20260507121558 | 21 | 0 | 0.0 | 3.2 | 0.00 | 0.00 | 0.00 | 67 | 1011.2 |
| 20260507121521 | 21 | 190 | 0.0 | 3.2 | 0.00 | 0.00 | 0.00 | 68 | 1011.8 |
| 20260507121020 | 21 | 190 | 0.0 | 3.2 | 0.00 | 0.00 | 0.00 | 67 | 1011.7 |
| 20260507120519 | 21 | 190 | 0.0 | 0.0 | 0.00 | 0.00 | 0.00 | 67 | 1011.6 |
| 20260507120058 | 21 | 0 | 0.0 | 0.0 | 0.00 | 0.00 | 0.00 | 67 | 1011.1 |
| 20260507120018 | 21 | 190 | 0.0 | 0.0 | 0.00 | 0.00 | 0.00 | 68 | 1011.6 |
| 20260507115517 | 21 | 190 | 0.0 | 0.0 | 0.00 | 0.00 | 0.00 | 68 | 1011.4 |
| 20260507115016 | 21 | 190 | 0.0 | 0.0 | 0.00 | 0.00 | 0.00 | 67 | 1011.4 |
| 20260507114605 | 21 | 0 | 0.0 | 0.0 | 0.00 | 0.00 | 0.00 | 66 | 1010.7 |
| 20260507114524 | 21 | 190 | 0.0 | 0.0 | 0.00 | 0.00 | 0.00 | 67 | 1011.3 |
| 20260507114015 | 21 | 190 | 0.0 | 0.0 | 0.00 | 0.00 | 0.00 | 66 | 1011.2 |
| 20260507113513 | 21 | 190 | 0.0 | 0.0 | 0.00 | 0.00 | 0.00 | 66 | 1011.2 |
| 20260507113100 | 21 | 0 | 0.0 | 0.0 | 0.00 | 0.00 | 0.00 | 65 | 1010.7 |
| 20260507113013 | 21 | 190 | 0.0 | 0.0 | 0.00 | 0.00 | 0.00 | 66 | 1011.2 |
| 20260507112513 | 21 | 190 | 0.0 | 0.0 | 0.00 | 0.00 | 0.00 | 66 | 1011.2 |
| 20260507112012 | 22 | 190 | 0.0 | 1.6 | 0.00 | 0.00 | 0.00 | 65 | 1011.2 |
| 20260507111556 | 22 | 0 | 0.0 | 3.2 | 0.00 | 0.00 | 0.00 | 64 | 1010.6 |
| 20260507111519 | 22 | 190 | 0.0 | 1.6 | 0.00 | 0.00 | 0.00 | 65 | 1011.1 |
| 20260507111010 | 22 | 190 | 0.0 | 3.2 | 0.00 | 0.00 | 0.00 | 65 | 1011.0 |
| 20260507110511 | 22 | 190 | 0.0 | 3.2 | 0.00 | 0.00 | 0.00 | 64 | 1010.9 |
| 20260507110057 | 22 | 190 | 0.0 | 3.2 | 0.00 | 0.00 | 0.00 | 63 | 1010.4 |
| 20260507110009 | 22 | 190 | 0.0 | 3.2 | 0.00 | 0.00 | 0.00 | 64 | 1010.9 |
| 20260507105508 | 22 | 190 | 0.0 | 0.0 | 0.00 | 0.00 | 0.00 | 64 | 1010.8 |
| 20260507105007 | 22 | 190 | 0.0 | 0.0 | 0.00 | 0.00 | 0.00 | 63 | 1010.7 |
| 20260507104556 | 22 | 0 | 0.0 | 0.0 | 0.00 | 0.00 | 0.00 | 63 | 1010.3 |
| 20260507104508 | 22 | 190 | 0.0 | 0.0 | 0.00 | 0.00 | 0.00 | 63 | 1010.7 |
| 20260507104007 | 22 | 190 | 0.0 | 0.0 | 0.00 | 0.00 | 0.00 | 63 | 1010.7 |
| 20260507103507 | 22 | 190 | 0.0 | 3.2 | 0.00 | 0.00 | 0.00 | 63 | 1010.8 |
| 20260507103059 | 22 | 190 | 0.0 | 4.8 | 0.00 | 0.00 | 0.00 | 63 | 1010.3 |
| 20260507103005 | 22 | 190 | 0.0 | 4.8 | 0.00 | 0.00 | 0.00 | 63 | 1010.7 |
| 20260507102505 | 22 | 190 | 1.6 | 4.8 | 0.00 | 0.00 | 0.00 | 63 | 1010.7 |
| 20260507102006 | 22 | 190 | 0.0 | 0.0 | 0.00 | 0.00 | 0.00 | 62 | 1010.7 |
| 20260507101556 | 23 | 0 | 0.0 | 0.0 | 0.00 | 0.00 | 0.00 | 62 | 1010.2 |
| 20260507101508 | 23 | 190 | 0.0 | 0.0 | 0.00 | 0.00 | 0.00 | 62 | 1010.7 |
| 20260507101002 | 23 | 190 | 0.0 | 0.0 | 0.00 | 0.00 | 0.00 | 62 | 1010.7 |
| 20260507100502 | 23 | 190 | 0.0 | 0.0 | 0.00 | 0.00 | 0.00 | 62 | 1010.6 |
| 20260507100058 | 23 | 0 | 0.0 | 3.2 | 0.00 | 0.00 | 0.00 | 61 | 1010.2 |
| 20260507100001 | 23 | 190 | 0.0 | 3.2 | 0.00 | 0.00 | 0.00 | 62 | 1010.7 |
| 20260507095501 | 23 | 190 | 0.0 | 3.2 | 0.00 | 0.00 | 0.00 | 62 | 1010.7 |
| 20260507095100 | 23 | 190 | 0.0 | 3.2 | 0.00 | 0.00 | 0.00 | 62 | 1010.6 |
| 20260507094613 | 23 | 190 | 0.0 | 3.2 | 0.00 | 0.00 | 0.00 | 61 | 1010.5 |
| 20260507094600 | 23 | 0 | 1.6 | 3.2 | 0.00 | 0.00 | 0.00 | 60 | 1010.1 |
| 20260507094058 | 23 | 190 | 0.0 | 0.0 | 0.00 | 0.00 | 0.00 | 60 | 1010.6 |
| 20260507093541 | 23 | 190 | 0.0 | 0.0 | 0.00 | 0.00 | 0.00 | 60 | 1010.6 |
| 20260507093058 | 23 | 0 | 0.0 | 0.0 | 0.00 | 0.00 | 0.00 | 59 | 1010.0 |
| 20260507093042 | 23 | 190 | 0.0 | 0.0 | 0.00 | 0.00 | 0.00 | 60 | 1010.5 |
| 20260507092541 | 23 | 190 | 0.0 | 0.0 | 0.00 | 0.00 | 0.00 | 60 | 1010.5 |
| 20260507092042 | 23 | 190 | 0.0 | 0.0 | 0.00 | 0.00 | 0.00 | 60 | 1010.5 |
| 20260507091606 | 24 | 0 | 0.0 | 0.0 | 0.00 | 0.00 | 0.00 | 59 | 1010.1 |
| 20260507091552 | 23 | 190 | 0.0 | 0.0 | 0.00 | 0.00 | 0.00 | 60 | 1010.5 |
| 20260507091040 | 23 | 190 | 0.0 | 0.0 | 0.00 | 0.00 | 0.00 | 60 | 1010.5 |
| 20260507090540 | 23 | 190 | 0.0 | 0.0 | 0.00 | 0.00 | 0.00 | 60 | 1010.6 |
| 20260507090057 | 23 | 0 | 0.0 | 0.0 | 0.00 | 0.00 | 0.00 | 60 | 1010.0 |
| 20260507090045 | 23 | 190 | 0.0 | 0.0 | 0.00 | 0.00 | 0.00 | 60 | 1010.6 |
| 20260507085539 | 23 | 190 | 0.0 | 0.0 | 0.00 | 0.00 | 0.00 | 60 | 1010.6 |
| 20260507085039 | 23 | 190 | 0.0 | 4.8 | 0.00 | 0.00 | 0.00 | 60 | 1010.7 |
| 20260507084558 | 23 | 0 | 0.0 | 4.8 | 0.00 | 0.00 | 0.00 | 59 | 1010.3 |
| 20260507084541 | 23 | 190 | 0.0 | 4.8 | 0.00 | 0.00 | 0.00 | 60 | 1010.7 |
| 20260507084037 | 23 | 190 | 1.6 | 4.8 | 0.00 | 0.00 | 0.00 | 60 | 1010.7 |
| 20260507083537 | 23 | 190 | 0.0 | 6.4 | 0.00 | 0.00 | 0.00 | 59 | 1010.6 |
| 20260507083104 | 23 | 0 | 1.6 | 6.4 | 0.00 | 0.00 | 0.00 | 59 | 1010.2 |
| 20260507083039 | 23 | 190 | 1.6 | 6.4 | 0.00 | 0.00 | 0.00 | 59 | 1010.6 |
| 20260507082536 | 24 | 190 | 0.0 | 4.8 | 0.00 | 0.00 | 0.00 | 59 | 1010.6 |
| 20260507082035 | 24 | 190 | 0.0 | 4.8 | 0.00 | 0.00 | 0.00 | 59 | 1010.7 |
| 20260507081557 | 24 | 190 | 0.0 | 4.8 | 0.00 | 0.00 | 0.00 | 58 | 1010.3 |
| 20260507081534 | 24 | 190 | 0.0 | 4.8 | 0.00 | 0.00 | 0.00 | 58 | 1010.7 |
| 20260507081033 | 24 | 190 | 1.6 | 4.8 | 0.00 | 0.00 | 0.00 | 58 | 1010.7 |
| 20260507080532 | 25 | 190 | 0.0 | 3.2 | 0.00 | 0.00 | 0.00 | 57 | 1010.7 |
| 20260507080134 | 25 | 0 | 0.0 | 6.4 | 0.00 | 0.00 | 0.00 | 57 | 1010.3 |
| 20260507080031 | 24 | 190 | 0.0 | 6.4 | 0.00 | 0.00 | 0.00 | 57 | 1010.7 |
| 20260507075530 | 25 | 190 | 3.2 | 6.4 | 0.00 | 0.00 | 0.00 | 57 | 1010.8 |
| 20260507075029 | 25 | 190 | 0.0 | 8.0 | 0.00 | 0.00 | 0.00 | 56 | 1010.9 |
| 20260507074605 | 25 | 190 | 0.0 | 6.4 | 0.00 | 0.00 | 0.00 | 56 | 1010.6 |
| 20260507074538 | 25 | 190 | 1.6 | 6.4 | 0.00 | 0.00 | 0.00 | 56 | 1010.9 |
| 20260507074026 | 25 | 190 | 0.0 | 0.0 | 0.00 | 0.00 | 0.00 | 56 | 1010.9 |
| 20260507073525 | 25 | 190 | 0.0 | 0.0 | 0.00 | 0.00 | 0.00 | 55 | 1010.9 |
| 20260507073111 | 26 | 0 | 0.0 | 0.0 | 0.00 | 0.00 | 0.00 | 55 | 1010.7 |
| 20260507073025 | 25 | 190 | 0.0 | 0.0 | 0.00 | 0.00 | 0.00 | 55 | 1011.0 |
| 20260507072525 | 25 | 190 | 0.0 | 0.0 | 0.00 | 0.00 | 0.00 | 55 | 1011.0 |
| 20260507072024 | 25 | 190 | 0.0 | 3.2 | 0.00 | 0.00 | 0.00 | 55 | 1011.0 |
| 20260507071606 | 26 | 0 | 0.0 | 3.2 | 0.00 | 0.00 | 0.00 | 54 | 1010.8 |
| 20260507071523 | 26 | 190 | 0.0 | 3.2 | 0.00 | 0.00 | 0.00 | 55 | 1011.2 |
| 20260507071022 | 26 | 190 | 0.0 | 0.0 | 0.00 | 0.00 | 0.00 | 54 | 1011.2 |
| 20260507070522 | 26 | 190 | 0.0 | 3.2 | 0.00 | 0.00 | 0.00 | 54 | 1011.3 |
| 20260507070108 | 26 | 0 | 0.0 | 3.2 | 0.00 | 0.00 | 0.00 | 54 | 1011.0 |
| 20260507070020 | 26 | 190 | 0.0 | 3.2 | 0.00 | 0.00 | 0.00 | 54 | 1011.2 |
| 20260507065524 | 26 | 190 | 0.0 | 3.2 | 0.00 | 0.00 | 0.00 | 54 | 1011.1 |
| 20260507065020 | 26 | 190 | 0.0 | 4.8 | 0.00 | 0.00 | 0.00 | 54 | 1011.1 |
| 20260507064602 | 26 | 190 | 3.2 | 4.8 | 0.00 | 0.00 | 0.00 | 53 | 1010.9 |
| 20260507064520 | 26 | 190 | 1.6 | 4.8 | 0.00 | 0.00 | 0.00 | 53 | 1011.1 |
| 20260507064020 | 26 | 190 | 1.6 | 4.8 | 0.00 | 0.00 | 0.00 | 53 | 1011.2 |
| 20260507063520 | 26 | 190 | 1.6 | 3.2 | 0.00 | 0.00 | 0.00 | 52 | 1011.2 |
| 20260507063101 | 27 | 190 | 0.0 | 3.2 | 0.00 | 0.00 | 0.00 | 52 | 1011.0 |
| 20260507063019 | 27 | 190 | 0.0 | 3.2 | 0.00 | 0.00 | 0.00 | 52 | 1011.2 |
| 20260507062519 | 27 | 190 | 0.0 | 1.6 | 0.00 | 0.00 | 0.00 | 51 | 1011.2 |
| 20260507062019 | 27 | 190 | 0.0 | 0.0 | 0.00 | 0.00 | 0.00 | 52 | 1011.2 |
| 20260507061558 | 27 | 0 | 0.0 | 0.0 | 0.00 | 0.00 | 0.00 | 51 | 1011.0 |
| 20260507061520 | 27 | 190 | 0.0 | 0.0 | 0.00 | 0.00 | 0.00 | 52 | 1011.2 |
| 20260507061020 | 27 | 190 | 0.0 | 4.8 | 0.00 | 0.00 | 0.00 | 52 | 1011.2 |
| 20260507060518 | 27 | 190 | 0.0 | 6.4 | 0.00 | 0.00 | 0.00 | 52 | 1011.2 |
| 20260507060103 | 27 | 190 | 0.0 | 6.4 | 0.00 | 0.00 | 0.00 | 51 | 1010.9 |
| 20260507060018 | 27 | 190 | 1.6 | 6.4 | 0.00 | 0.00 | 0.00 | 52 | 1011.1 |
| 20260507055518 | 27 | 190 | 0.0 | 1.6 | 0.00 | 0.00 | 0.00 | 51 | 1011.1 |
| 20260507055018 | 27 | 190 | 0.0 | 6.4 | 0.00 | 0.00 | 0.00 | 51 | 1011.1 |
| 20260507054607 | 27 | 190 | 1.6 | 6.4 | 0.00 | 0.00 | 0.00 | 50 | 1010.9 |
| 20260507054518 | 27 | 190 | 0.0 | 6.4 | 0.00 | 0.00 | 0.00 | 51 | 1011.1 |
| 20260507054017 | 27 | 190 | 1.6 | 6.4 | 0.00 | 0.00 | 0.00 | 51 | 1011.1 |
| 20260507053518 | 27 | 190 | 1.6 | 6.4 | 0.00 | 0.00 | 0.00 | 50 | 1011.1 |
| 20260507053100 | 28 | 190 | 1.6 | 6.4 | 0.00 | 0.00 | 0.00 | 49 | 1010.9 |
| 20260507053017 | 28 | 190 | 1.6 | 6.4 | 0.00 | 0.00 | 0.00 | 50 | 1011.1 |
| 20260507052516 | 28 | 190 | 1.6 | 8.0 | 0.00 | 0.00 | 0.00 | 50 | 1011.1 |
| 20260507052017 | 28 | 190 | 1.6 | 8.0 | 0.00 | 0.00 | 0.00 | 49 | 1011.0 |
| 20260507051600 | 28 | 0 | 1.6 | 6.4 | 0.00 | 0.00 | 0.00 | 49 | 1010.9 |
| 20260507051524 | 28 | 190 | 1.6 | 6.4 | 0.00 | 0.00 | 0.00 | 49 | 1011.0 |
| 20260507051016 | 28 | 190 | 1.6 | 6.4 | 0.00 | 0.00 | 0.00 | 49 | 1011.0 |
| 20260507050516 | 28 | 190 | 0.0 | 8.0 | 0.00 | 0.00 | 0.00 | 49 | 1010.9 |
| 20260507050057 | 28 | 0 | 1.6 | 8.0 | 0.00 | 0.00 | 0.00 | 48 | 1010.7 |
| 20260507050016 | 28 | 190 | 0.0 | 8.0 | 0.00 | 0.00 | 0.00 | 48 | 1010.9 |
| 20260507045516 | 28 | 190 | 1.6 | 9.7 | 0.00 | 0.00 | 0.00 | 48 | 1010.9 |
| 20260507045016 | 28 | 190 | 1.6 | 9.7 | 0.00 | 0.00 | 0.00 | 47 | 1010.9 |
| 20260507044621 | 29 | 190 | 3.2 | 8.0 | 0.00 | 0.00 | 0.00 | 46 | 1010.7 |
| 20260507044516 | 29 | 190 | 1.6 | 8.0 | 0.00 | 0.00 | 0.00 | 47 | 1010.9 |
| 20260507044017 | 29 | 190 | 0.0 | 8.0 | 0.00 | 0.00 | 0.00 | 47 | 1010.9 |
| 20260507043516 | 29 | 190 | 1.6 | 8.0 | 0.00 | 0.00 | 0.00 | 46 | 1010.7 |
| 20260507043059 | 29 | 0 | 0.0 | 6.4 | 0.00 | 0.00 | 0.00 | 45 | 1010.5 |
| 20260507043015 | 29 | 190 | 0.0 | 6.4 | 0.00 | 0.00 | 0.00 | 46 | 1010.7 |
| 20260507042515 | 29 | 190 | 1.6 | 6.4 | 0.00 | 0.00 | 0.00 | 45 | 1010.6 |
| 20260507042014 | 30 | 190 | 1.6 | 6.4 | 0.00 | 0.00 | 0.00 | 45 | 1010.5 |
| 20260507041607 | 30 | 190 | 0.0 | 6.4 | 0.00 | 0.00 | 0.00 | 44 | 1010.2 |
| 20260507041514 | 30 | 190 | 0.0 | 6.4 | 0.00 | 0.00 | 0.00 | 45 | 1010.4 |
| 20260507041014 | 30 | 190 | 0.0 | 4.8 | 0.00 | 0.00 | 0.00 | 45 | 1010.2 |
| 20260507040515 | 30 | 190 | 1.6 | 4.8 | 0.00 | 0.00 | 0.00 | 44 | 1010.0 |
| 20260507040108 | 30 | 0 | 0.0 | 4.8 | 0.00 | 0.00 | 0.00 | 43 | 1009.9 |
| 20260507040014 | 30 | 190 | 0.0 | 4.8 | 0.00 | 0.00 | 0.00 | 44 | 1009.9 |
| 20260507035514 | 30 | 190 | 0.0 | 8.0 | 0.00 | 0.00 | 0.00 | 44 | 1009.8 |
| 20260507035014 | 30 | 190 | 1.6 | 8.0 | 0.00 | 0.00 | 0.00 | 43 | 1009.7 |
| 20260507034559 | 30 | 190 | 1.6 | 8.0 | 0.00 | 0.00 | 0.00 | 42 | 1009.6 |
| 20260507034520 | 30 | 190 | 1.6 | 8.0 | 0.00 | 0.00 | 0.00 | 43 | 1009.7 |
| 20260507034013 | 30 | 190 | 1.6 | 8.0 | 0.00 | 0.00 | 0.00 | 43 | 1009.5 |
| 20260507033516 | 31 | 190 | 1.6 | 8.0 | 0.00 | 0.00 | 0.00 | 43 | 1009.4 |
| 20260507033059 | 31 | 190 | 3.2 | 8.0 | 0.00 | 0.00 | 0.00 | 42 | 1009.5 |
| 20260507033013 | 31 | 190 | 1.6 | 8.0 | 0.00 | 0.00 | 0.00 | 42 | 1009.3 |
| 20260507032513 | 31 | 190 | 0.0 | 4.8 | 0.00 | 0.00 | 0.00 | 42 | 1009.3 |
| 20260507032012 | 31 | 190 | 0.0 | 8.0 | 0.00 | 0.00 | 0.00 | 42 | 1009.2 |
| 20260507031605 | 31 | 190 | 0.0 | 9.7 | 0.00 | 0.00 | 0.00 | 41 | 1009.2 |
| 20260507031513 | 31 | 190 | 0.0 | 9.7 | 0.00 | 0.00 | 0.00 | 42 | 1009.1 |
| 20260507031012 | 31 | 190 | 3.2 | 8.0 | 0.00 | 0.00 | 0.00 | 42 | 1009.0 |
| 20260507030513 | 31 | 190 | 0.0 | 6.4 | 0.00 | 0.00 | 0.00 | 41 | 1009.0 |
| 20260507030105 | 31 | 190 | 0.0 | 3.2 | 0.00 | 0.00 | 0.00 | 41 | 1009.1 |
| 20260507030017 | 31 | 190 | 0.0 | 3.2 | 0.00 | 0.00 | 0.00 | 41 | 1008.9 |
| 20260507025511 | 31 | 190 | 0.0 | 0.0 | 0.00 | 0.00 | 0.00 | 41 | 1008.9 |
| 20260507025011 | 31 | 190 | 0.0 | 0.0 | 0.00 | 0.00 | 0.00 | 41 | 1009.0 |
| 20260507024556 | 31 | 0 | 0.0 | 6.4 | 0.00 | 0.00 | 0.00 | 40 | 1009.0 |
| 20260507024516 | 31 | 190 | 0.0 | 3.2 | 0.00 | 0.00 | 0.00 | 41 | 1008.8 |
| 20260507024010 | 31 | 190 | 0.0 | 6.4 | 0.00 | 0.00 | 0.00 | 40 | 1008.7 |
| 20260507023513 | 32 | 190 | 0.0 | 6.4 | 0.00 | 0.00 | 0.00 | 40 | 1008.6 |
| 20260507023058 | 32 | 190 | 1.6 | 6.4 | 0.00 | 0.00 | 0.00 | 39 | 1008.5 |
| 20260507023010 | 32 | 190 | 1.6 | 6.4 | 0.00 | 0.00 | 0.00 | 40 | 1008.5 |
| 20260507022510 | 32 | 190 | 0.0 | 0.0 | 0.00 | 0.00 | 0.00 | 40 | 1008.4 |
| 20260507022015 | 32 | 190 | 0.0 | 4.8 | 0.00 | 0.00 | 0.00 | 39 | 1008.2 |
| 20260507021558 | 32 | 0 | 0.0 | 8.0 | 0.00 | 0.00 | 0.00 | 39 | 1008.1 |
| 20260507021510 | 32 | 190 | 0.0 | 8.0 | 0.00 | 0.00 | 0.00 | 39 | 1008.2 |
| 20260507021010 | 32 | 190 | 1.6 | 8.0 | 0.00 | 0.00 | 0.00 | 39 | 1008.0 |
| 20260507020510 | 32 | 190 | 0.0 | 8.0 | 0.00 | 0.00 | 0.00 | 38 | 1007.8 |
| 20260507020103 | 32 | 0 | 1.6 | 12.9 | 0.00 | 0.00 | 0.00 | 38 | 1007.6 |
| 20260507020012 | 32 | 190 | 1.6 | 12.9 | 0.00 | 0.00 | 0.00 | 38 | 1007.6 |
| 20260507015513 | 33 | 190 | 3.2 | 12.9 | 0.00 | 0.00 | 0.00 | 38 | 1007.5 |
| 20260507015009 | 33 | 190 | 3.2 | 9.7 | 0.00 | 0.00 | 0.00 | 37 | 1007.3 |
| 20260507014607 | 33 | 190 | 1.6 | 17.7 | 0.00 | 0.00 | 0.00 | 36 | 1007.3 |
| 20260507014512 | 33 | 190 | 1.6 | 17.7 | 0.00 | 0.00 | 0.00 | 37 | 1007.3 |
| 20260507014008 | 33 | 190 | 6.4 | 17.7 | 0.00 | 0.00 | 0.00 | 36 | 1007.2 |
| 20260507013508 | 33 | 190 | 4.8 | 14.5 | 0.00 | 0.00 | 0.00 | 36 | 1007.1 |
| 20260507013059 | 33 | 190 | 3.2 | 16.1 | 0.00 | 0.00 | 0.00 | 35 | 1007.1 |
| 20260507013008 | 33 | 190 | 1.6 | 16.1 | 0.00 | 0.00 | 0.00 | 35 | 1007.0 |
| 20260507012509 | 34 | 190 | 4.8 | 17.7 | 0.00 | 0.00 | 0.00 | 35 | 1006.9 |
| 20260507012009 | 34 | 190 | 8.0 | 17.7 | 0.00 | 0.00 | 0.00 | 34 | 1006.8 |
| 20260507011604 | 35 | 190 | 6.4 | 19.3 | 0.00 | 0.00 | 0.00 | 33 | 1006.7 |
| 20260507011508 | 35 | 190 | 4.8 | 16.1 | 0.00 | 0.00 | 0.00 | 33 | 1006.7 |
| 20260507011007 | 35 | 190 | 6.4 | 19.3 | 0.00 | 0.00 | 0.00 | 32 | 1006.5 |
| 20260507010506 | 35 | 190 | 6.4 | 19.3 | 0.00 | 0.00 | 0.00 | 32 | 1006.4 |
| 20260507010058 | 36 | 190 | 1.6 | 16.1 | 0.00 | 0.00 | 0.00 | 30 | 1006.3 |
| 20260507010010 | 36 | 190 | 0.0 | 16.1 | 0.00 | 0.00 | 0.00 | 30 | 1006.3 |
| 20260507005507 | 36 | 190 | 4.8 | 16.1 | 0.00 | 0.00 | 0.00 | 29 | 1006.2 |
| 20260507005006 | 37 | 190 | 1.6 | 12.9 | 0.00 | 0.00 | 0.00 | 24 | 1006.1 |
| 20260507004558 | 37 | 190 | 1.6 | 12.9 | 0.00 | 0.00 | 0.00 | 20 | 1005.9 |
| 20260507004504 | 37 | 190 | 1.6 | 12.9 | 0.00 | 0.00 | 0.00 | 21 | 1005.9 |
| 20260507004005 | 37 | 190 | 3.2 | 12.9 | 0.00 | 0.00 | 0.00 | 20 | 1005.6 |
| 20260507003505 | 37 | 190 | 3.2 | 12.9 | 0.00 | 0.00 | 0.00 | 20 | 1005.5 |
| 20260507003100 | 37 | 190 | 4.8 | 17.7 | 0.00 | 0.00 | 0.00 | 20 | 1005.3 |
| 20260507003008 | 37 | 190 | 4.8 | 17.7 | 0.00 | 0.00 | 0.00 | 20 | 1005.3 |
| 20260507002503 | 37 | 190 | 6.4 | 17.7 | 0.00 | 0.00 | 0.00 | 20 | 1005.1 |
| 20260507002007 | 37 | 190 | 3.2 | 16.1 | 0.00 | 0.00 | 0.00 | 20 | 1005.1 |
| 20260507001615 | 38 | 190 | 6.4 | 16.1 | 0.00 | 0.00 | 0.00 | 20 | 1005.0 |
| 20260507001504 | 37 | 190 | 4.8 | 16.1 | 0.00 | 0.00 | 0.00 | 20 | 1005.0 |
| 20260507001004 | 38 | 190 | 4.8 | 16.1 | 0.00 | 0.00 | 0.00 | 20 | 1004.9 |
| 20260507000503 | 38 | 190 | 4.8 | 16.1 | 0.00 | 0.00 | 0.00 | 21 | 1004.8 |
| 20260507000101 | 38 | 190 | 6.4 | 14.5 | 0.00 | 0.00 | 0.00 | 20 | 1004.9 |
| 20260507000003 | 38 | 190 | 4.8 | 14.5 | 0.00 | 0.00 | 0.00 | 20 | 1004.8 |
| 20260506235504 | 38 | 190 | 4.8 | 12.9 | 0.00 | 0.00 | 0.00 | 20 | 1004.8 |
| 20260506235002 | 38 | 190 | 3.2 | 9.7 | 0.00 | 0.00 | 0.00 | 20 | 1004.8 |
| 20260506234603 | 38 | 190 | 1.6 | 11.3 | 0.00 | 0.00 | 0.00 | 20 | 1004.8 |
| 20260506234501 | 38 | 190 | 1.6 | 11.3 | 0.00 | 0.00 | 0.00 | 20 | 1004.8 |
| 20260506234002 | 38 | 190 | 3.2 | 19.3 | 0.00 | 0.00 | 0.00 | 20 | 1004.7 |
| 20260506233501 | 38 | 190 | 4.8 | 19.3 | 0.00 | 0.00 | 0.00 | 20 | 1004.8 |
| 20260506233059 | 38 | 190 | 6.4 | 19.3 | 0.00 | 0.00 | 0.00 | 20 | 1004.8 |
| 20260506233002 | 38 | 190 | 6.4 | 19.3 | 0.00 | 0.00 | 0.00 | 21 | 1004.8 |
| 20260506232503 | 38 | 190 | 4.8 | 12.9 | 0.00 | 0.00 | 0.00 | 20 | 1004.7 |
| 20260506232001 | 38 | 190 | 4.8 | 12.9 | 0.00 | 0.00 | 0.00 | 20 | 1004.7 |
| 20260506231602 | 38 | 190 | 3.2 | 12.9 | 0.00 | 0.00 | 0.00 | 20 | 1004.7 |
| 20260506231558 | 38 | 190 | 4.8 | 16.1 | 0.00 | 0.00 | 0.00 | 20 | 1004.7 |
| 20260506231101 | 38 | 190 | 3.2 | 16.1 | 0.00 | 0.00 | 0.00 | 21 | 1004.8 |
| 20260506230600 | 38 | 190 | 4.8 | 14.5 | 0.00 | 0.00 | 0.00 | 21 | 1004.7 |
| 20260506230100 | 38 | 190 | 3.2 | 14.5 | 0.00 | 0.00 | 0.00 | 21 | 1004.7 |
| 20260506230058 | 38 | 190 | 4.8 | 14.5 | 0.00 | 0.00 | 0.00 | 20 | 1004.8 |
| 20260506225600 | 39 | 190 | 3.2 | 11.3 | 0.00 | 0.00 | 0.00 | 21 | 1004.7 |
| 20260506225100 | 38 | 190 | 1.6 | 11.3 | 0.00 | 0.00 | 0.00 | 21 | 1004.7 |
| 20260506224559 | 38 | 190 | 0.0 | 12.9 | 0.00 | 0.00 | 0.00 | 21 | 1004.7 |
| 20260506224059 | 39 | 190 | 4.8 | 11.3 | 0.00 | 0.00 | 0.00 | 21 | 1004.7 |
| 20260506223557 | 38 | 190 | 1.6 | 12.9 | 0.00 | 0.00 | 0.00 | 22 | 1004.8 |
| 20260506223101 | 38 | 190 | 4.8 | 16.1 | 0.00 | 0.00 | 0.00 | 22 | 1004.8 |
| 20260506223057 | 38 | 190 | 3.2 | 19.3 | 0.00 | 0.00 | 0.00 | 21 | 1004.9 |
| 20260506222556 | 38 | 190 | 3.2 | 19.3 | 0.00 | 0.00 | 0.00 | 21 | 1004.9 |
| 20260506222055 | 38 | 190 | 8.0 | 19.3 | 0.00 | 0.00 | 0.00 | 21 | 1004.9 |
| 20260506221601 | 38 | 190 | 4.8 | 16.1 | 0.00 | 0.00 | 0.00 | 21 | 1005.0 |
| 20260506221555 | 38 | 190 | 3.2 | 16.1 | 0.00 | 0.00 | 0.00 | 22 | 1005.0 |
| 20260506221054 | 38 | 190 | 0.0 | 17.7 | 0.00 | 0.00 | 0.00 | 22 | 1005.1 |
| 20260506220555 | 38 | 190 | 4.8 | 17.7 | 0.00 | 0.00 | 0.00 | 22 | 1005.2 |
| 20260506220108 | 38 | 190 | 4.8 | 11.3 | 0.00 | 0.00 | 0.00 | 21 | 1005.2 |
| 20260506220053 | 38 | 190 | 1.6 | 11.3 | 0.00 | 0.00 | 0.00 | 22 | 1005.2 |
| 20260506215552 | 38 | 190 | 0.0 | 19.3 | 0.00 | 0.00 | 0.00 | 22 | 1005.2 |
| 20260506215053 | 38 | 190 | 4.8 | 24.1 | 0.00 | 0.00 | 0.00 | 23 | 1005.4 |
| 20260506214601 | 38 | 190 | 6.4 | 14.5 | 0.00 | 0.00 | 0.00 | 22 | 1005.3 |
| 20260506214551 | 38 | 190 | 6.4 | 24.1 | 0.00 | 0.00 | 0.00 | 22 | 1005.3 |
| 20260506214049 | 38 | 190 | 1.6 | 12.9 | 0.00 | 0.00 | 0.00 | 23 | 1005.5 |
| 20260506213548 | 38 | 190 | 3.2 | 20.9 | 0.00 | 0.00 | 0.00 | 24 | 1005.7 |
| 20260506213103 | 38 | 190 | 9.7 | 20.9 | 0.00 | 0.00 | 0.00 | 23 | 1005.6 |
| 20260506213049 | 38 | 190 | 6.4 | 20.9 | 0.00 | 0.00 | 0.00 | 24 | 1005.7 |
| 20260506212548 | 38 | 190 | 3.2 | 12.9 | 0.00 | 0.00 | 0.00 | 24 | 1005.6 |
| 20260506212048 | 38 | 190 | 0.0 | 8.0 | 0.00 | 0.00 | 0.00 | 24 | 1005.7 |
| 20260506211600 | 37 | 0 | 1.6 | 17.7 | 0.00 | 0.00 | 0.00 | 24 | 1005.8 |
| 20260506211552 | 37 | 190 | 1.6 | 17.7 | 0.00 | 0.00 | 0.00 | 25 | 1005.9 |
| 20260506211045 | 37 | 190 | 8.0 | 17.7 | 0.00 | 0.00 | 0.00 | 24 | 1006.1 |
| 20260506210545 | 37 | 190 | 3.2 | 20.9 | 0.00 | 0.00 | 0.00 | 25 | 1006.1 |
| 20260506210120 | 38 | 190 | 6.4 | 16.1 | 0.00 | 0.00 | 0.00 | 24 | 1006.1 |
| 20260506210044 | 38 | 190 | 9.7 | 20.9 | 0.00 | 0.00 | 0.00 | 25 | 1006.2 |
| 20260506205543 | 38 | 190 | 3.2 | 9.7 | 0.00 | 0.00 | 0.00 | 24 | 1006.3 |
| 20260506205042 | 37 | 190 | 0.0 | 11.3 | 0.00 | 0.00 | 0.00 | 24 | 1006.3 |
| 20260506204559 | 37 | 190 | 6.4 | 19.3 | 0.00 | 0.00 | 0.00 | 25 | 1006.4 |
| 20260506204541 | 37 | 190 | 6.4 | 19.3 | 0.00 | 0.00 | 0.00 | 25 | 1006.4 |
| 20260506204040 | 37 | 190 | 6.4 | 19.3 | 0.00 | 0.00 | 0.00 | 25 | 1006.5 |
| 20260506203540 | 37 | 190 | 3.2 | 16.1 | 0.00 | 0.00 | 0.00 | 24 | 1006.5 |
| 20260506203143 | 37 | 190 | 3.2 | 12.9 | 0.00 | 0.00 | 0.00 | 24 | 1006.7 |
| 20260506203039 | 37 | 190 | 1.6 | 12.9 | 0.00 | 0.00 | 0.00 | 24 | 1006.6 |
| 20260506202538 | 37 | 190 | 0.0 | 6.4 | 0.00 | 0.00 | 0.00 | 25 | 1006.7 |
| 20260506202037 | 37 | 190 | 1.6 | 6.4 | 0.00 | 0.00 | 0.00 | 25 | 1006.7 |
| 20260506201600 | 37 | 190 | 1.6 | 11.3 | 0.00 | 0.00 | 0.00 | 25 | 1006.9 |
| 20260506201536 | 37 | 190 | 1.6 | 9.7 | 0.00 | 0.00 | 0.00 | 26 | 1006.9 |
| 20260506201034 | 37 | 190 | 1.6 | 11.3 | 0.00 | 0.00 | 0.00 | 26 | 1007.1 |
| 20260506200533 | 37 | 190 | 1.6 | 19.3 | 0.00 | 0.00 | 0.00 | 26 | 1007.2 |
| 20260506200032 | 36 | 190 | 4.8 | 22.5 | 0.00 | 0.00 | 0.00 | 27 | 1007.3 |
| 20260506195531 | 37 | 190 | 4.8 | 16.1 | 0.00 | 0.00 | 0.00 | 26 | 1007.4 |
| 20260506195032 | 36 | 190 | 1.6 | 11.3 | 0.00 | 0.00 | 0.00 | 27 | 1007.5 |
| 20260506194601 | 36 | 0 | 1.6 | 12.9 | 0.00 | 0.00 | 0.00 | 26 | 1007.6 |
| 20260506194534 | 36 | 190 | 1.6 | 12.9 | 0.00 | 0.00 | 0.00 | 27 | 1007.7 |
| 20260506194027 | 36 | 190 | 3.2 | 12.9 | 0.00 | 0.00 | 0.00 | 27 | 1007.8 |
| 20260506193525 | 36 | 190 | 4.8 | 17.7 | 0.00 | 0.00 | 0.00 | 27 | 1008.0 |
| 20260506193100 | 36 | 190 | 8.0 | 17.7 | 0.00 | 0.00 | 0.00 | 28 | 1008.1 |
| 20260506193028 | 36 | 190 | 6.4 | 17.7 | 0.00 | 0.00 | 0.00 | 28 | 1008.2 |
| 20260506192522 | 36 | 190 | 1.6 | 8.0 | 0.00 | 0.00 | 0.00 | 27 | 1008.3 |
| 20260506192021 | 36 | 190 | 0.0 | 11.3 | 0.00 | 0.00 | 0.00 | 30 | 1008.4 |
| 20260506191605 | 35 | 190 | 3.2 | 14.5 | 0.00 | 0.00 | 0.00 | 29 | 1008.5 |
| 20260506191520 | 35 | 190 | 0.0 | 14.5 | 0.00 | 0.00 | 0.00 | 29 | 1008.6 |
| 20260506191018 | 35 | 190 | 8.0 | 14.5 | 0.00 | 0.00 | 0.00 | 30 | 1008.7 |
| 20260506190517 | 35 | 190 | 4.8 | 12.9 | 0.00 | 0.00 | 0.00 | 30 | 1008.8 |
| 20260506190058 | 35 | 0 | 4.8 | 14.5 | 0.00 | 0.00 | 0.00 | 30 | 1008.9 |
| 20260506190017 | 35 | 190 | 3.2 | 14.5 | 0.00 | 0.00 | 0.00 | 30 | 1009.0 |
| 20260506185515 | 35 | 190 | 6.4 | 11.3 | 0.00 | 0.00 | 0.00 | 30 | 1009.1 |
| 20260506185016 | 35 | 190 | 3.2 | 12.9 | 0.00 | 0.00 | 0.00 | 30 | 1009.3 |
| 20260506184603 | 35 | 190 | 4.8 | 14.5 | 0.00 | 0.00 | 0.00 | 31 | 1009.4 |
| 20260506184521 | 35 | 190 | 4.8 | 14.5 | 0.00 | 0.00 | 0.00 | 31 | 1009.4 |
| 20260506184013 | 35 | 190 | 6.4 | 14.5 | 0.00 | 0.00 | 0.00 | 31 | 1009.6 |
| 20260506183511 | 35 | 190 | 6.4 | 16.1 | 0.00 | 0.00 | 0.00 | 32 | 1009.7 |
| 20260506183112 | 34 | 190 | 4.8 | 16.1 | 0.00 | 0.00 | 0.00 | 31 | 1009.6 |
| 20260506183009 | 34 | 190 | 4.8 | 16.1 | 0.00 | 0.00 | 0.00 | 32 | 1009.8 |
| 20260506182508 | 35 | 190 | 1.6 | 6.4 | 0.00 | 0.00 | 0.00 | 32 | 1009.8 |
| 20260506182009 | 34 | 190 | 0.0 | 8.0 | 0.00 | 0.00 | 0.00 | 32 | 1010.0 |
| 20260506181601 | 35 | 190 | 0.0 | 9.7 | 0.00 | 0.00 | 0.00 | 32 | 1010.1 |
| 20260506181507 | 34 | 190 | 0.0 | 9.7 | 0.00 | 0.00 | 0.00 | 32 | 1010.1 |
| 20260506181007 | 34 | 190 | 3.2 | 14.5 | 0.00 | 0.00 | 0.00 | 32 | 1010.2 |
| 20260506180507 | 34 | 190 | 6.4 | 14.5 | 0.00 | 0.00 | 0.00 | 33 | 1010.3 |
| 20260506180058 | 34 | 190 | 1.6 | 9.7 | 0.00 | 0.00 | 0.00 | 32 | 1010.2 |
| 20260506180007 | 34 | 190 | 1.6 | 8.0 | 0.00 | 0.00 | 0.00 | 33 | 1010.3 |
| 20260506175504 | 34 | 190 | 0.0 | 9.7 | 0.00 | 0.00 | 0.00 | 34 | 1010.4 |
| 20260506175004 | 34 | 190 | 1.6 | 11.3 | 0.00 | 0.00 | 0.00 | 33 | 1010.5 |
| 20260506174609 | 34 | 190 | 3.2 | 11.3 | 0.00 | 0.00 | 0.00 | 33 | 1010.4 |
| 20260506174002 | 33 | 190 | 1.6 | 6.4 | 0.00 | 0.00 | 0.00 | 34 | 1010.7 |
| 20260506173601 | 33 | 190 | 0.0 | 8.0 | 0.00 | 0.00 | 0.00 | 35 | 1010.8 |
| 20260506173128 | 33 | 190 | 0.0 | 9.7 | 0.00 | 0.00 | 0.00 | 35 | 1010.9 |
| 20260506173059 | 33 | 0 | 1.6 | 9.7 | 0.00 | 0.00 | 0.00 | 35 | 1010.7 |
| 20260506172558 | 33 | 190 | 0.0 | 11.3 | 0.00 | 0.00 | 0.00 | 35 | 1010.9 |
| 20260506172057 | 32 | 190 | 1.6 | 11.3 | 0.00 | 0.00 | 0.00 | 36 | 1011.0 |
| 20260506171611 | 32 | 190 | 3.2 | 11.3 | 0.00 | 0.00 | 0.00 | 36 | 1010.9 |
| 20260506171559 | 32 | 190 | 1.6 | 11.3 | 0.00 | 0.00 | 0.00 | 36 | 1011.2 |
| 20260506171056 | 32 | 190 | 4.8 | 11.3 | 0.00 | 0.00 | 0.00 | 37 | 1011.2 |
| 20260506170556 | 32 | 190 | 4.8 | 9.7 | 0.00 | 0.00 | 0.00 | 37 | 1011.4 |
| 20260506170103 | 32 | 190 | 1.6 | 11.3 | 0.00 | 0.00 | 0.00 | 37 | 1011.1 |
| 20260506170055 | 32 | 190 | 1.6 | 11.3 | 0.00 | 0.00 | 0.00 | 37 | 1011.4 |
| 20260506165554 | 32 | 190 | 1.6 | 11.3 | 0.00 | 0.00 | 0.00 | 39 | 1011.5 |
| 20260506165055 | 32 | 190 | 3.2 | 8.0 | 0.00 | 0.00 | 0.00 | 38 | 1011.6 |
| 20260506164600 | 32 | 190 | 3.2 | 8.0 | 0.00 | 0.00 | 0.00 | 38 | 1011.3 |
| 20260506164553 | 32 | 190 | 3.2 | 8.0 | 0.00 | 0.00 | 0.00 | 39 | 1011.7 |
| 20260506164051 | 32 | 190 | 0.0 | 8.0 | 0.00 | 0.00 | 0.00 | 39 | 1011.8 |
| 20260506163550 | 31 | 190 | 1.6 | 8.0 | 0.00 | 0.00 | 0.00 | 40 | 1011.8 |
| 20260506163133 | 31 | 190 | 3.2 | 9.7 | 0.00 | 0.00 | 0.00 | 40 | 1011.6 |
| 20260506163054 | 31 | 190 | 3.2 | 8.0 | 0.00 | 0.00 | 0.00 | 40 | 1011.9 |
| 20260506162547 | 31 | 190 | 1.6 | 9.7 | 0.00 | 0.00 | 0.00 | 40 | 1012.0 |
| 20260506162047 | 31 | 190 | 4.8 | 9.7 | 0.00 | 0.00 | 0.00 | 41 | 1012.0 |
| 20260506161559 | 31 | 190 | 0.0 | 9.7 | 0.00 | 0.00 | 0.00 | 41 | 1011.7 |
| 20260506161548 | 31 | 190 | 1.6 | 9.7 | 0.00 | 0.00 | 0.00 | 41 | 1012.0 |
| 20260506161048 | 30 | 190 | 3.2 | 9.7 | 0.00 | 0.00 | 0.00 | 42 | 1012.1 |
| 20260506160544 | 30 | 190 | 1.6 | 9.7 | 0.00 | 0.00 | 0.00 | 43 | 1012.1 |
| 20260506160106 | 30 | 190 | 4.8 | 9.7 | 0.00 | 0.00 | 0.00 | 43 | 1011.9 |
| 20260506160043 | 30 | 190 | 4.8 | 9.7 | 0.00 | 0.00 | 0.00 | 43 | 1012.1 |
| 20260506155543 | 30 | 190 | 0.0 | 3.2 | 0.00 | 0.00 | 0.00 | 45 | 1012.1 |
| 20260506155041 | 30 | 190 | 0.0 | 6.4 | 0.00 | 0.00 | 0.00 | 47 | 1012.1 |
| 20260506154557 | 30 | 190 | 3.2 | 6.4 | 0.00 | 0.00 | 0.00 | 46 | 1011.9 |
| 20260506154541 | 29 | 190 | 1.6 | 6.4 | 0.00 | 0.00 | 0.00 | 47 | 1012.2 |
| 20260506154039 | 29 | 190 | 0.0 | 8.0 | 0.00 | 0.00 | 0.00 | 48 | 1012.2 |
| 20260506153539 | 29 | 190 | 0.0 | 8.0 | 0.00 | 0.00 | 0.00 | 49 | 1012.2 |
| 20260506153129 | 29 | 0 | 0.0 | 3.2 | 0.00 | 0.00 | 0.00 | 49 | 1011.9 |
| 20260506153042 | 29 | 190 | 0.0 | 3.2 | 0.00 | 0.00 | 0.00 | 49 | 1012.3 |
| 20260506152536 | 29 | 190 | 0.0 | 1.6 | 0.00 | 0.00 | 0.00 | 49 | 1012.3 |
| 20260506152038 | 29 | 190 | 0.0 | 3.2 | 0.00 | 0.00 | 0.00 | 50 | 1012.2 |
| 20260506151600 | 28 | 0 | 1.6 | 6.4 | 0.00 | 0.00 | 0.00 | 50 | 1011.9 |
| 20260506151534 | 28 | 190 | 0.0 | 6.4 | 0.00 | 0.00 | 0.00 | 51 | 1012.3 |
| 20260506151035 | 28 | 190 | 0.0 | 4.8 | 0.00 | 0.00 | 0.00 | 51 | 1012.4 |
| 20260506150531 | 28 | 190 | 0.0 | 4.8 | 0.00 | 0.00 | 0.00 | 52 | 1012.4 |
| 20260506150030 | 28 | 190 | 0.0 | 4.8 | 0.00 | 0.00 | 0.00 | 53 | 1012.4 |
| 20260506145531 | 27 | 190 | 0.0 | 4.8 | 0.00 | 0.00 | 0.00 | 53 | 1012.3 |
| 20260506145027 | 27 | 190 | 0.0 | 6.4 | 0.00 | 0.00 | 0.00 | 54 | 1012.4 |
| 20260506144558 | 27 | 190 | 0.0 | 4.8 | 0.00 | 0.00 | 0.00 | 54 | 1012.0 |
| 20260506144541 | 27 | 190 | 0.0 | 4.8 | 0.00 | 0.00 | 0.00 | 55 | 1012.4 |
| 20260506144025 | 27 | 190 | 0.0 | 4.8 | 0.00 | 0.00 | 0.00 | 55 | 1012.4 |
| 20260506143526 | 27 | 190 | 0.0 | 0.0 | 0.00 | 0.00 | 0.00 | 56 | 1012.5 |
| 20260506143059 | 26 | 0 | 0.0 | 0.0 | 0.00 | 0.00 | 0.00 | 56 | 1012.0 |
| 20260506143026 | 26 | 190 | 0.0 | 0.0 | 0.00 | 0.00 | 0.00 | 57 | 1012.5 |
| 20260506142525 | 26 | 190 | 0.0 | 0.0 | 0.00 | 0.00 | 0.00 | 58 | 1012.5 |
| 20260506142026 | 26 | 190 | 0.0 | 0.0 | 0.00 | 0.00 | 0.00 | 58 | 1012.4 |
| 20260506141600 | 25 | 0 | 0.0 | 0.0 | 0.00 | 0.00 | 0.00 | 59 | 1011.9 |
| 20260506141525 | 25 | 190 | 0.0 | 0.0 | 0.00 | 0.00 | 0.00 | 60 | 1012.4 |
| 20260506141026 | 25 | 190 | 0.0 | 0.0 | 0.00 | 0.00 | 0.00 | 61 | 1012.4 |